User: anonymous   Login
Location: Caltech
(34.1382°N, 118.1253°W)
Time: 08:36:05
(UTC-08:00)
Language:

Cosmos 1937 Rocket - Orbit

View from above orbital plane
View from above orbital plane
View from above satellite
View from above satellite

Ground track
Ground track

The orbit data is extracted from the following two-line orbital elements,

1 19039U 88029B   16339.90787088  .00000082  00000-0  35346-4 0  9993
2 19039  74.0482 297.1791 0023328 161.7279 257.3470 14.38342295502923
Epoch (UTC): 04 December 2016 21:47:20
Eccentricity: 0.0023328
inclination: 74.0482°
perigee height: 747 km
apogee height: 780 km
right ascension of ascending node: 297.1791°
argument of perigee: 161.7279°
revolutions per day: 14.38342295
mean anomaly at epoch: 257.3470°
orbit number at epoch: 50292

The dashed part of the orbit path shows where the satellite is in the earth's shadow,  

DLR